Hourly Data Report for October 25, 2016

All times are specified in Local Standard Time (LST). Add 1 hour to adjust for Daylight Saving Time where and when it is observed.

KUGAARUK CLIMATE
NUNAVUT

68°32'15.060" N
89°47'47.020" W
15.80 m
2303094
71407
NBB

Download Data

Hourly Data (October 2016)
Hourly Data Report for October 25, 2016
Temp Definition
°C
Dew Point Temp Definition
°C
Rel Hum Definition
%
Wind Dir Definition
10's deg

Wind Spd Definition
km/h
Visibility Definition
km
Stn Press Definition
kPa
Hmdx Definition


Wind Chill Definition


Weather Definition


TIME
00:00 -5.3 -6.2 94 28 8   102.66   -9 LegendNANA
01:00 -5.7 -6.6 94   0   102.64     LegendNANA
02:00 -6.2 -7.3 92 24 10   102.64   -11 LegendNANA
03:00 -6.0 -7.0 92 23 10   102.62   -10 LegendNANA
04:00 -6.1 -7.2 91 23 9   102.58   -10 LegendNANA
05:00 -7.1 -8.2 92 25 8   102.56   -11 LegendNANA
06:00 -7.2 -8.2 93 25 10   102.52   -12 LegendNANA
07:00 -8.2 -9.1 93 26 13   102.48   -14 LegendNANA
08:00 -7.6 -8.6 93 26 9   102.46   -12 LegendNANA
09:00 -8.7 -10.3 88 28 3   102.40   -10 LegendNANA
10:00 -8.9 -11.1 84 3 1   102.38   -9 LegendNANA
11:00 -7.9 -9.5 88 22 15   102.35   -14 LegendNANA
12:00 -8.5 -10.2 87 23 22   102.31   -16 LegendNANA
13:00 -10.0 -11.9 86 24 21   102.29   -18 LegendNANA
14:00 -10.9 -12.5 88 24 26   102.25   -20 LegendNANA
15:00 -9.8 -10.9 92 26 18   102.25   -17 LegendNANA
16:00 -9.9 -11.1 91 28 13   102.26   -16 LegendNANA
17:00 -10.5 -11.8 90 27 15   102.22   -17 LegendNANA
18:00 -11.2 -12.6 89 22 14   102.18   -18 LegendNANA
19:00 -10.6 -12.0 90 25 20   102.12   -19 LegendNANA
20:00 -10.5 -12.2 88 24 25   102.08   -19 LegendNANA
21:00 -10.5 -12.1 88 23 22   102.02   -19 LegendNANA
22:00 -9.8 -11.6 87 22 23   101.95   -18 LegendNANA
23:00 -9.6 -11.2 89 23 25   101.88   -18 LegendNANA

Notes on Data Quality.

Legend

  • E = Estimated
  • M = Missing
  • NA = Not Available
  • ‡ = Partner data that is not subject to review by the National Climate Archives
Date modified: